Regional Weather Roundup
Issued by NWS New Orleans/Baton Rouge, LA

Current Version | Previous Version | Text Only | Print | Product List | Glossary On
Versions: 1 2 3 4 5 6 7 8 9 10 11 12 13 14 15 16 17 18 19 20 21 22 23 24 25 26 27 28
000
ASUS44 KLIX 281113
RWRLIX
NEW ORLEANS REGIONAL WEATHER ROUNDUP
NATIONAL WEATHER SERVICE NEW ORLEANS LA
600 AM CDT SUN MAY 28 2017

NOTE: "FAIR" INDICATES FEW OR NO CLOUDS BELOW 12,000 FEET WITH NO
      SIGNIFICANT WEATHER AND/OR OBSTRUCTIONS TO VISIBILITY.
      SKY/WX - SKY CONDITION AND SIGNIFICANT WEATHER.
      TMP - AIR TEMPERATURE.     DP    - DEWPOINT TEMPERATURE.
      RH  - RELATIVE HUMIDITY.   PRES  - PRESSURE.
      HI  - HEAT INDEX.          WCI   - WIND CHILL INDEX.

*  THESE STATIONS ARE NOT NWS OR FAA STATIONS AND ARE NOT UNDER
   NWS QUALITY CONTROL.

LAZ038-040-048-061>063-065>067-069-281200-
SOUTHEAST LOUISIANA

CITY           SKY/WX    TMP DP  RH WIND       PRES   REMARKS
N.O. INTL ARPT MOCLDY    76  75  97 CALM      29.96R
N.O. LAKEFRONT CLOUDY    79  76  90 SW9       29.97R
N.O. DOWNTOWN*   N/A     80  75  84 S3          N/A
RESERVE*       PTSUNNY   79  75  89 W5        29.96R
SLIDELL        CLOUDY    79  75  87 CALM      29.97R
BATON ROUGE    CLOUDY    78  74  87 S8        29.95R
BOOTHVILLE     CLOUDY    79  78  97 S9        29.95R FOG
BELLE CHASSE   CLOUDY   N/A N/A N/A SW6       29.97R
BOGALUSA*      CLOUDY    78  73  85 CALM      30.00R
GALLIANO*      PTSUNNY   79  74  86 S13       29.95R
NEW ROADS*     CLOUDY    76  75  96 CALM      29.95R
GONZALES*      CLOUDY    78  74  86 S5        29.95R
HAMMOND*       CLOUDY    77  72  83 CALM      29.97R
HOUMA*         MOCLDY    79  75  89 S5        29.95  FOG
PORT FOURCHON* PTSUNNY   79  77  94 SW10      29.94R

$$

MSZ070-080>082-281200-
SOUTHERN MISSISSIPPI

CITY           SKY/WX    TMP DP  RH WIND       PRES   REMARKS
MCCOMB         CLOUDY    76  73  91 CALM      29.99R
GULFPORT       CLOUDY    80  76  87 W6        29.97R
BILOXI         MOCLDY    79  75  89 SW7       29.98R
PASCAGOULA     LGT RAIN  78  74  87 VRB3      29.98R

$$

COASTAL OBSERVATIONS
LAKE AND NEARSHORE STATIONS

STATION/POSITION TIME  TEMP    WIND        PRES    WAVE
                       AIR SEA DIR/SP/G            HT/PER
                 (UTC) (F)     (DEG/KT/KT) (MB)    (FT/S)
PASCAGOULA       1048   79     250/ 10/ 14 1014.7
WAVELAND YACHT   1048   79 81  250/  4/  7 1014.6
GRAND ISLE       1048   79 80  210/  9/ 12 1013.6
SOUTHWEST PASS   1048          190/  9/ 11   N/A
NEW CANAL        1048   79 80  240/  4/  6 1014.4
SHELL BEACH      1048   79 81  220/  6/  7 1014.4

OFFSHORE STATIONS

STATION/POSITION TIME  TEMP    WIND        PRES    WAVE
                       AIR SEA DIR/SP/G            HT/PER
                 (UTC) (F)     (DEG/KT/KT) (MB)    (FT/S)
64 S DAUPHIN ISL 1050   79 79  190/ 14/ 16 1014.5    3/ 4

$$





USA.gov is the U.S. government's official web portal to all federal, state and local government web resources and services.